2017 Great Turtle Trail Run

Mackinac Island, MI
2017-10-28
Starts on: 2017-10-28
Where: Mackinac Island, MI
Categories: Half Marathon Run 5.7 Mile Run 5.7 Mile Walk
Description: Join us for the 22nd running of the Great Turtle Half Marathon and 5.7 Mile - celebrated as one of the most scenic trail events in the country! Enjoy the beauty of Mackinac Island's Fall season running and walking the interior trails and shoreline of the Island on the last open weekend of the season.
Female Half Marathon
name bib rank time pace hometown
Emily Short 809 1 01:29:07 06:49 Tawas City, MI
Cristina Noble 660 2 01:34:44 07:14 Brighton, MI
Marissa Lobert 565 3 01:35:55 07:20 Sault Ste Marie, --
Nikki Liversedge 563 4 01:37:43 07:28 Ada, MI
Elaine Hodder 434 5 01:38:16 07:31 Brighton, MI
Rebecca Yurgens 950 6 01:38:42 07:33 Saint Charles, MI
Lisa Buursma 229 7 01:39:51 07:38 Grand Rapids, MI
Valerie Ingersoll 459 8 01:41:55 07:47 Manawa, WI
Natalie Vidacs 897 9 01:42:08 07:48 N Royalton, OH
Jennifer Murray 648 10 01:42:44 07:51 Milford, MI
Amber Williamson 931 11 01:44:04 07:57 -, US
Meagan Center 238 12 01:44:13 07:58 Midland, MI
Katie Frentz 347 13 01:44:33 07:59 Petoskey, MI
Christy Jepson 471 14 01:44:45 08:00 Westerville, OH
Gina Hurren 454 15 01:45:30 08:04 Bay Port, MI
Jessica Alpers 146 16 01:46:11 08:07 Lake Leelanau, MI
Michelle White 922 17 01:46:12 08:07 Traverse City, MI
Mary Harris 410 18 01:46:18 08:07 Hart, MI
Sarah Grant 973 19 01:46:25 08:08 Ada, MI
Michelle Urben 883 20 01:46:39 08:09 Sterling Hts, MI
Kayla Contardi 250 21 01:47:27 08:13 Midland, MI
Anya Mallinger 83 22 01:47:47 08:14 Sault Ste Marie, --
Audrey Stempky 120 23 01:47:52 08:15 Petoskey, MI
Susie Tazzi 1027 24 01:47:52 08:15 Essexville, MI
Jessica Courtright 36 25 01:48:12 08:16 Stanwood, MI
Leah Molchan 633 26 01:48:21 08:17 Hudsonville, MI
Emily Goorley 370 27 01:48:40 08:18 Grand Rapids, MI
Melanie Hartges 413 28 01:48:41 08:18 Haslett, MI
Kristy Currie 1017 29 01:49:16 08:21 MacKinaw City, MI
Holly Engle 317 30 01:50:53 08:28 Saint Ignace, MI
Kate Partlow 689 31 01:51:13 08:30 Clio, MI
Michele Revolt 751 32 01:51:17 08:30 Traverse City, MI
Erin Huntoon 453 33 01:51:43 08:32 Fenton, MI
Chelsea Borta 200 34 01:51:43 08:32 Grand Rapids, MI
Tonja Slosar 816 35 01:51:59 08:33 Fenton, MI
Elise Elzinga 314 36 01:52:17 08:35 Muskegon, MI
Chelsea English 47 37 01:52:18 08:35 Traverse City, MI
Jennifer Symons 852 38 01:52:36 08:36 Suttons Bay, MI
Tracie Granata 58 39 01:52:41 08:37 Alpena, MI
Katelyn Bierman 185 40 01:53:02 08:38 Saint Louis, MO
Megan Graverson 378 41 01:53:22 08:40 Traverse City, MI
Miriam Weiss 1005 42 01:53:26 08:40 Flint, MI
Michelle Geisler 362 43 01:53:48 08:42 Troy, MI
Gina Bono 197 44 01:53:54 08:42 Fenton, MI
Lori Adams 5 45 01:54:03 08:43 Traverse City, MI
Amy Jones 484 46 01:54:08 08:43 Ann Arbor, MI
Brandi Logan 1020 47 01:54:10 08:43 Negaunee, MI
Theresa Mudge 1045 48 01:54:16 08:44 Sault Ste. Marie, --
Kelley Groves 386 49 01:54:27 08:45 Detroit, MI
Melissa Marowelli 587 50 01:54:38 08:45 Saline, MI
Jennifer Smith 820 51 01:54:39 08:46 Mesick, MI
Becky Davenport 274 52 01:54:52 08:47 Grosse Pointe, MI
Elisha Boeskool 16 53 01:55:01 08:47 Grand Rapids, MI
Amanda Johnson 474 54 01:55:10 08:48 Marquette, MI
A Yokom 945 55 01:55:23 08:49 Cheboygan, MI
Jill Moreno 640 56 01:55:46 08:51 Bay City, MI
Peggy Herrick 976 57 01:55:47 08:51 East Tawas, MI
Julie Black 15 58 01:55:47 08:51 Midland, MI
Connie Root 767 59 01:56:05 08:52 Haslett, MI
Terese Grondin 384 60 01:56:05 08:52 Fenton, MI
Donna Lay 82 61 01:56:36 08:55 Portland, MI
Heather Kass 494 62 01:56:41 08:55 Ravenna, MI
Katherine Bennett 179 63 01:56:43 08:55 Ann Arbor, MI
Jodie Fountain 344 64 01:56:50 08:56 Remus, MI
Nicole Manduca 580 65 01:56:55 08:56 Denver, CO
Morgan Balcom 161 66 01:57:06 08:57 Holland, MI
Jori Thocker 866 67 01:57:06 08:57 Pickford, MI
Tessa Bentlage 181 68 01:57:10 08:57 Marquette, MI
Jennifer Smith 1025 69 01:57:15 08:57 Grand Ledge, MI
Tracie Lentz 556 70 01:57:48 09:00 Shepherd, MI
Meghann Deering 966 71 01:57:49 09:00 Ann Arbor, MI
Carrie Stewart 838 72 01:57:57 09:01 Sault Ste. Marie, --
Sue Weiss 1009 73 01:58:02 09:01 Flint, MI
Emily Haas 393 74 01:58:03 09:01 Canton, MI
Rachael McCoy 86 75 01:58:16 09:02 Sault S Marie, MI
Ashley Klaasen 515 76 01:59:04 09:06 Grand Rapids, MI
Frannie Gembis 971 77 01:59:13 09:06 Birmingham, MI
Stephanie Loria 569 78 01:59:26 09:08 Harbor Spgs, MI
Laura Buchholz 222 79 01:59:36 09:08 Manawa, WI
Linda Oelke 987 80 01:59:38 09:08 Petoskey, MI
Susan Rook 764 81 01:59:48 09:09 Holt, MI
Katherine Soave 826 82 02:00:11 09:11 Midland, MI
Jodie Romzek 107 83 02:00:22 09:12 Midland, MI
Jennifer Danielski 270 84 02:00:39 09:13 Bay City, MI
Karen Kazensky 496 85 02:00:45 09:14 Westland, MI
Cari Taylor 857 86 02:00:48 09:14 Fremont, MI
Liza Haugh 61 87 02:00:53 09:14 Waterford, MI
Leigha Woelffer 935 88 02:01:18 09:16 Gladstone, MI
Olivia Wery 917 89 02:01:19 09:16 Gladstone, MI
Julie Warum 906 90 02:01:32 09:17 Northville, MI
Shannon McNamara 617 91 02:01:43 09:18 Flat Rock, MI
Michelle Sheckler 807 92 02:02:02 09:19 Cedarville, MI
Kari Bradley 205 93 02:02:12 09:20 Sandy, UT
Heather Ritchie 104 94 02:02:14 09:20 Gladwin, MI
Alyssa Young 948 95 02:02:18 09:21 Sterling Hts, MI
Lorie Robb 760 96 02:02:29 09:21 Bellaire, MI
Dana Koepf 527 97 02:02:33 09:22 Brighton, MI
Pauline Wall 903 98 02:02:38 09:22 Brantford, --
Christine Frost 352 99 02:02:38 09:22 Cambridge, --
Wanda Darrow 273 100 02:02:42 09:22 Potterville, MI

Next Page